Location: Béaulencourt
(50.0796°N, 2.8795°E)
Time: 21:00:55
(UTC+00:00)

Cosmos 2263 Rocket - Pass Details

Date: 20 January 2026
Orbit: 821 x 849 km, 71.0° (Epoch: 16 February)

Event Time Altitude Azimuth Distance (km) Brightness Sun altitude
Exits shadow 06:52:23 - 332° (NNW) 3,339 4.8 -7.2°
Reaches altitude 10° 06:56:07 10° 358° (N) 2,485 4.4 -6.7°
Maximum altitude 06:58:41 13° 25° (NNE) 2,273 4.5 -6.3°
Drops below altitude 10° 07:01:16 10° 52° (NE) 2,482 5.0 -5.9°
Sets 07:05:16 0° 80° (E) 3,413 6.4 -5.3°
